www.pogodaiklimat.ru

Погода и климат >> Архив погоды >> Россия >> Волгоградская область >> Фролово


АРХИВ ПОГОДЫ в Фролове

Время (UTC), дата Ветер
(напр.,м/с)
 
Видим.   Явления Облачность Т
(С)
Тd
(С)
f
(%)
Тe
(С)
Тes
(С)
Комфортность P
(гПа)
Po
(гПа)
Тmin
(С)
Tmax
(С)
R
(мм)
R24
(мм)
S
(см)
09 9.07 ЮЗ 3 10 км {ливн. осадки} 9/9 600 м
[Sc]
+22.0 +16.0 69 +26 +27 душно 1004.1 990.4
12 9.07 ЮЗ 3 10 км {ливн. осадки} 8/8 600 м
[Sc diur, vesp]
+23.9 +16.3 62 +27 +29 жарко 1003.8 990.2
15 9.07 З 4
{10}
10 км 8/8 600 м
[Sc diur, vesp]
+24.3 +11.7 45 +26 +26 жарко 1004.0 990.4 +25.8 7
18 9.07 З 1 20 км 6/0
[Cs]
+17.0 +10.9 67 +18 +18 1006.1 992.2
21 9.07 штиль 0 20 км 3/0
[Cs]
+12.2 +9.3 82 +12 +12 1007.1 992.9
00 10.07 штиль 0 20 км 3/0
[Cs]
+11.2 +9.9 92 +10 +10 1007.4 993.1
03 10.07 ЮЗ 1 10 км 6/0
[Cs]
+14.0 +10.1 77 +14 +16 1007.2 993.0 +9.8
06 10.07 З 4 10 км 8/8 600 м
[Sc]
+20.7 +9.5 49 +22 +24 комфорт 1006.6 992.8
09 10.07 З 4 10 км 9/9 600 м
[Cb calv]
+21.5 +6.3 37 +22 +23 комфорт 1006.2 992.4
12 10.07 З 5
{11}
10 км 8/8 600 м
[Cb calv]
+23.6 +5.8 32 +24 +25 комфорт 1005.0 991.4
15 10.07 З 4
{13}
10 км 4/4 1000 м
[Cu hum]
+23.1 +5.4 32 +23 +24 комфорт 1004.8 991.1 +24.3
18 10.07 штиль 0 20 км 3/3 1000 м
[Cu hum]
+16.0 +7.8 58 +16 +16 1006.1 992.1
21 10.07 штиль 0 20 км 3/0
[Ci fib]
+12.7 +7.9 73 +12 +12 1006.3 992.1
00 11.07 штиль 0 20 км 8/8 600 м
[Sc]
+13.2 +8.7 74 +13 +13 1006.1 992.0
03 11.07 Ю 1 10 км 10/0
[Cs]
+15.8 +9.6 67 +17 +18 1006.1 992.1 +12.5
06 11.07 ЮЗ 2 10 км 10/0
[Ac As]
+20.8 +11.3 54 +23 +27 комфорт 1006.2 992.4
09 11.07 Ю 3 10 км 10/3 600 м
[Cu hum Ac As]
+23.6 +8.1 37 +24 +27 комфорт 1005.8 992.1
12 11.07 ЮЗ 2 10 км 10/8 600 м
[Cb calv Ac As]
+23.3 +6.7 34 +24 +25 комфорт 1005.0 991.3
15 11.07 ЮЗ 1 4000 м слаб. ливневой дождь 10/10 300 м
[Cb calv]
+16.7 +13.1 79 +18 +18 1007.0 993.0 +24.6 1
18 11.07 ЮВ 1 20 км {ливн. осадки} 10/0
[Ac As]
+16.2 +13.3 83 +17 +17 1006.4 992.4
21 11.07 штиль 0 20 км 9/0
[Ac As]
+14.4 +13.6 95 +14 +14 1007.1 993.0
00 12.07 ЮВ 1 20 км 10/0
[Ac As]
+13.9 +13.6 98 +14 +14 1007.1 993.0
03 12.07 штиль 0 10 км 10/0
[Ac As]
+14.8 +14.3 97 +14 +15 1006.5 992.4 +13.8 0.0
06 12.07 штиль 0 10 км 10/0
[Ac As]
+15.6 +15.1 97 +15 +20 1007.0 992.9
09 12.07 ЮВ 1 4000 м слаб. ливневой дождь 10/10 300 м
[Cb calv]
+15.6 +15.1 97 +16 +16 1007.5 993.5
12 12.07 С 1 10 км {ливн. осадки} 8/0
[Ac As]
+17.3 +12.4 73 +18 +24 1007.5 993.5
15 12.07 В 1 10 км 8/0
[Cs]
+19.5 +11.1 58 +22 +24 комфорт 1006.8 993.0 +19.9 5
18 12.07 ЮВ 1 20 км 6/0
[Ac As]
+15.5 +12.1 80 +16 +16 1007.8 993.7
21 12.07 штиль 0 20 км 6/0
[Ac As]
+11.6 +11.2 97 +11 +11 1007.8 993.5
00 13.07 штиль 0 20 км 6/0
[Ac As]
+11.8 +11.5 98 +11 +11 1007.2 992.9
03 13.07 штиль 0 10 км 8/0
[Cs]
+14.1 +13.8 98 +14 +15 1007.2 993.1 +10.9
06 13.07 Ю 1 10 км 8/0
[Cs]
+21.9 +13.2 58 +25 +35 комфорт 1007.3 993.5
09 13.07 Ю 1 10 км 6/6 1000 м
[Cu hum]
+25.8 +8.8 34 +26 +34 жарко 1006.9 993.3
12 13.07 С 3
{10}
10 км гроза без осадков {ливн. осадки} 8/8 600 м
[Cb calv]
+16.8 +13.1 79 +17 +18 1007.9 993.9
15 13.07 СЗ 1 10 км в посл. час ливневой дождь {гроза} 8/8 600 м
[Cb calv]
+17.3 +15.7 90 +18 +19 1008.2 994.2 +27.1 2
18 13.07 С 1 20 км {гроза, ливн. осадки} 9/9 600 м
[Sc diur, vesp]
+17.1 +14.4 84 +18 +18 1010.3 996.2
21 13.07 ЮВ 1 20 км 9/9 600 м
[Sc diur, vesp]
+16.4 +14.8 90 +17 +17 1009.2 995.2
00 14.07 штиль 0 20 км 9/9 600 м
[Sc diur, vesp]
+14.5 +14.2 98 +14 +14 1008.8 994.7
03 14.07 ЮЗ 1 10 км 6/0
[Cs]
+15.1 +14.8 98 +16 +17 1009.3 995.2 +13.4
06 14.07 Ю 1 10 км 6/0
[Ac und]
+20.8 +12.1 57 +24 +31 комфорт 1009.5 995.7
09 14.07 Ю 1 10 км 8/8 600 м
[Cb calv]
+24.1 +8.3 36 +25 +29 комфорт 1008.6 994.9
12 14.07 ЮЗ 3 10 км 4/4 600 м
[Cb calv]
+25.9 +10.0 37 +27 +32 жарко 1007.9 994.3
15 14.07 З 1 10 км 4/4 1000 м
[Cu hum]
+25.0 +10.0 39 +26 +27 жарко 1007.7 994.1 +27.2
18 14.07 СВ 2 20 км 6/6 1000 м
[Cu hum]
+20.0 +11.4 58 +22 +22 комфорт 1008.7 994.8
21 14.07 штиль 0 20 км ясно +15.5 +12.0 80 +15 +15 1008.7 994.6
00 15.07 штиль 0 20 км ясно +12.9 +11.9 94 +12 +12 1008.7 994.5
03 15.07 штиль 0 10 км ясно +15.3 +11.7 79 +15 +17 1008.9 994.8 +12.5
06 15.07 С 2 10 км ясно +24.2 +11.7 46 +26 +37 жарко 1008.8 995.1
09 15.07 СВ 1 10 км 4/4 1000 м
[Cu hum]
+27.2 +8.3 30 +27 +39 жарко 1008.1 994.6
12 15.07 С 1 10 км 8/8 600 м
[Cb calv]
+29.3 +7.3 25 +28 +31 жарко 1007.7 994.2
15 15.07 В 1 10 км 8/4
[Cu hum Cs]
+27.4 +7.0 27 +27 +28 жарко 1007.3 993.8 +29.6
18 15.07 штиль 0 20 км 8/8 600 м
[Cb calv]
+22.7 +12.2 51 +25 +25 комфорт 1008.9 995.2
21 15.07 В 2 20 км 8/8 600 м
[Cb calv]
+22.0 +10.4 48 +24 +24 комфорт 1009.1 995.3
00 16.07 В 3 20 км 9/0
[Ac As]
+19.1 +10.5 57 +20 +20 1009.1 995.2
03 16.07 В 2 10 км 10/0
[Ac As]
+19.6 +10.4 55 +21 +22 комфорт 1008.9 995.0 +19.0
06 16.07 ЮВ 1 10 км 10/0
[Ac As]
+20.2 +13.0 63 +23 +27 комфорт 1009.7 995.8

 

Местоположение метеостанции Фролово (Волгоградская область, Россия): широта 49.80 долгота 43.67 высота над уровнем моря 119 м.

В архиве по умолчанию представлена погода в Фролове за последнюю неделю. Архивные данные за месяц целиком и за предыдущие месяцы, начиная с января 2011 года, Вы можете получить, выбрав интересующий диапазон дат из раскрывающегося списка и нажав кнопку "Ввод!".


*Определитесь, кто Вы:
робот инопланетянин человек

Внимание! Время в таблицах - всемирное. Для получения местного времени необходимо прибавить поправку, которая равна 3 ч.

Смотрите также архив погоды в соседних городах и на ближайших метеорологических станциях:

Погода в Михайловке (Волгоградская область, Россия) (42 км)
Погода в Иловле (Волгоградская область, Россия) (60 км)
Погода в Ольховке (Волгоградская область, Россия) (64 км)
Погода в Даниловке (Волгоградская область, Россия) (71 км)
Погода в Серафимовиче (Волгоградская область, Россия) (72 км)
Погода в Новоаннинском (Волгоградская область, Россия) (108 км)
Погода в Волгограде (Волгоградская область, Россия) (124 км)
Погода в Калаче-на-Дону (Волгоградская область, Россия) (125 км)
Погода в Камышине (Волгоградская область, Россия) (125 км)
Погода в Елани (Волгоградская область, Россия) (128 км)

Пояснения к столбцам:

Ветер - указаны скорость ветра в м/с - средняя за 10 мин, порывы в срок и между сроками (в фигурных скобках) и направление, откуда дует ветер: С - северный, СВ - северо-восточный, В - восточный, ЮВ - юго-восточный, Ю - южный, ЮЗ - юго-западный, З - западный, СЗ - северо-западный.
Видимость - горизонтальная дальность видимости в метрах или километрах. При видимости от 1 до 10 км при отсутствии осадков обычно наблюдается дымка, при ухудшении видимости до 1 км и менее - туман. В сухую погоду видимость может ухудшаться дымом, пылью или мглою.
Явления - указаны атмосферные явления, наблюдавшиеся в срок или в последний час перед сроком; фигурными скобками обозначены явления, наблюдавшиеся между сроками (за 1-3 часа до срока); квадратными скобками обозначены град или гололедные отложения с указанием их диаметра в мм.
Облачность - указаны через наклонную черту общая и нижняя облачность в баллах и высота нижней границы облаков в метрах; квадратными скобками обозначены формы облаков: Ci - перистые, Cs - перисто-слоистые, Cc - перисто-кучевые, Ac - высококучевые, As - высокослоистые, Sc - слоисто-кучевые, Ns - слоисто-дождевые, Cu - кучевые, Cb - кучево-дождевые. Подробнее классификацию облаков см. в Атласе облаков (PDF).
T - Температура воздуха - температура, измеренная на высоте 2 м над землей.
Td - Температура точки росы - температура, при понижении до которой содержащийся в воздухе водяной пар достигнет насыщения.
f - Относительная влажность воздуха - влажноcть воздуха, измеренная на высоте 2 м над землей.
Te - Эффективная температура - температура, которую ощущает одетый по сезону человек в тени. Характеристика душности погоды. При расчете учитывается влияние влажности воздуха и скорости ветра на теплоощущения человека.
Tes - Эффективная температура на солнце - температура, которую ощущает человек, с поправкой на солнечный нагрев. Характеристика знойности погоды. Зависит от высоты солнца над горизонтом, облачности и скорости ветра. Ночью, в пасмурную погоду, а также при ветре 12 м/с и более поправка равна нулю.
P - Атмосферное давление - приведенное к уровню моря атмосферное давление.
Po - Атмосферное давление - измеренное на уровне метеостанции атмосферное давление.
Tmin - Минимальная температура - минимум температуры воздуха на высоте 2 м над землей.
Tmax - Максимальная температура - максимум температуры воздуха на высоте 2 м над землей.
R - Количество осадков - Количество выпавших осадков за период времени, мм. При наведении курсора мыши на число - период времени, за который выпало указанное количество осадков.
R24 - Количество осадков - Количество выпавших осадков за 24 часа, мм.
S - Снежный покров - Высота снежного покрова, см. При наведении курсора мыши на число - состояние снежного покрова и степень покрытия местности в баллах.